Regional Weather Roundup
Issued by NWS

Home | Current Version | Previous Version | Graphics & Text | Print | Product List | Glossary On
Versions: 1 2 3 4 5 6 7 8 9 10 11 12 13 14 15 16 17 18 19 20 21 22 23 24 25 26 27 28 29 30 31 32 33 34 35 36 37 38 39 40 41 42 43 44 45 46 47 48 49 50
000
ASUS43 KLOT 221606
RWRIL

ILLINOIS REGIONAL WEATHER ROUNDUP
NATIONAL WEATHER SERVICE CHICAGO/ROMEOVILLE IL
1100 AM CDT WED OCT 22 2014

NOTE: "FAIR" INDICATES FEW OR NO CLOUDS BELOW 12,000 FEET WITH NO
SIGNIFICANT WEATHER AND/OR OBSTRUCTIONS TO VISIBILITY.

* THESE STATIONS ARE NOT UNDER NWS QUALITY CONTROL. THEY ALSO MAY NOT
  REPORT WEATHER SUCH AS PRECIPITATION OR FOG.

ILZ001-002-007-009-015-016-024-221700-
NORTHWEST ILLINOIS

CITY           SKY/WX    TMP DP  RH WIND       PRES   REMARKS
MOLINE         SUNNY     52  41  66 SE12      30.33F
STERLING*      SUNNY     54  39  58 S6        30.36R
SAVANNA*       SUNNY     53  40  61 SE8       30.34F
$$

ILZ003-004-008-010-011-017-018-221700-
NORTH CENTRAL ILLINOIS

CITY           SKY/WX    TMP DP  RH WIND       PRES   REMARKS
ROCKFORD       SUNNY     52  39  61 SE9       30.38R
FREEPORT*      SUNNY     48  40  74 SE10      30.37R
ROCHELLE*      SUNNY     50  38  64 S3        30.36S
DE KALB*       MOSUNNY   50  39  67 SE5       30.37R
PERU*          SUNNY     52  38  60 SE9       30.36F
$$

ILZ005-006-012>014-019>023-221700-
NORTHEAST ILLINOIS

CITY           SKY/WX    TMP DP  RH WIND       PRES   REMARKS
CHICAGO-OHARE  MOSUNNY   50  38  63 S5        30.37R
CHICAGO-MIDWAY MOSUNNY   51  38  60 E6        30.37S
AURORA         SUNNY     51  39  63 VRB3      30.37R
LANSING*       SUNNY     49  37  65 E3        30.38S
JOLIET*        SUNNY     50  38  64 E5        30.37F
WAUKEGAN       PTSUNNY   51  40  65 E9        30.36R
DUPAGE AIRPORT MOSUNNY   53  41  63 VRB3      30.35S
KANKAKEE*      SUNNY     50  40  67 E6        30.37F
WHEELING       PTSUNNY   53  40  61 SE7       30.38R
MORRIS*        SUNNY     52  39  61 SE3       30.36S
ROMEOVILLE*    SUNNY     50  37  61 SE3       30.37S
NORTHERLY ISL    N/A     50  40  68 E5          N/A
$$

LMZ740>746-221700-
SOUTHERN LAKE MICHIGAN

STATION/POSITION SKY/WX   TEMP    WIND        PRES    VSBY  WAVE
                          AIR SEA DIR/SP/G                  HT/PER
                          (F)     (DEG/KT/KT) (MB)    (MI)  (FT/S)
SOUTHERN BUOY              47 54   90/  6/  8 1029.4R         2/ 5
WAUKEGAN HARBOR            49     120/  7/  8   N/A
BURNHAM HARBOR             50     140/  5/  7   N/A
CALUMET HARBOR             47     110/  4/  6 1027.3F
MICHIGAN CITY              47      30/  4/  6   N/A
$$

ILZ025>027-034>036-040-047-049-050-058-095>099-221700-
WEST-CENTRAL ILLINOIS

CITY           SKY/WX    TMP DP  RH WIND       PRES   REMARKS
QUINCY         SUNNY     52  41  66 SE10      30.32S
GALESBURG*     SUNNY     51  41  69 SE8       30.34S
MACOMB*        SUNNY     51  41  70 SE9       30.36S
JACKSONVILLE*  SUNNY     55  43  64 SE7       30.34S
PITTSFIELD*    SUNNY     54  43  66 E7        30.34S
$$

ILZ028>032-037-038-041>044-048-051>054-059>061-221700-
CENTRAL ILLINOIS

CITY           SKY/WX    TMP DP  RH WIND       PRES   REMARKS
PONTIAC        SUNNY     51  37  58 SE7       30.37F
BLOOMINGTON    SUNNY     52  40  63 VRB5      30.36F
DECATUR        SUNNY     52  39  61 E10       30.36S
PEORIA         SUNNY     53  38  56 SE7       30.36S
LACON*         SUNNY     51  37  59 SE9       30.35S
LINCOLN*       SUNNY     53  39  58 SE9       30.34F
SPRINGFIELD    SUNNY     54  40  59 E7        30.35F
TAYLORVILLE    SUNNY     52  41  66 SE7       30.35S
$$

ILZ033-039-045-046-055>057-062-063-221700-
EAST-CENTRAL ILLINOIS

CITY           SKY/WX    TMP DP  RH WIND       PRES   REMARKS
CHAMPAIGN      SUNNY     51  38  60 SE7       30.36R
DANVILLE*      SUNNY     50  37  59 E10       30.34S
RANTOUL*         N/A     53  36  52 E5        30.36S
MATTOON        SUNNY     51  38  60 E8        30.34S
PARIS*         SUNNY     53  38  56 E8        30.36R
$$

ILZ079-100>102-221700-
SOUTHWEST ILLINOIS

CITY           SKY/WX    TMP DP  RH WIND       PRES   REMARKS
ALTON          SUNNY     54  43  66 SE12      30.34S
BELLEVILLE     SUNNY     54  45  72 VRB2      30.33S
CAHOKIA*       SUNNY     55  45  68 SE7       30.33S
SPARTA*        SUNNY     54  44  70 SE3       30.34S
$$

ILZ064>066-069>071-074>076-080>082-084>086-088>090-092>094-221700-
SOUTH-CENTRAL ILLINOIS

CITY           SKY/WX    TMP DP  RH WIND       PRES   REMARKS
CARBONDALE     SUNNY     55  43  63 E8        30.32S
CAIRO*         SUNNY     60  46  59 E6        30.31R
EFFINGHAM*     SUNNY     54  34  47 E6        30.35S
MARION         SUNNY     55  45  67 SE12      30.33S
MT. VERNON     SUNNY     54  41  62 E6        30.34S
CENTRALIA*     SUNNY     54  41  60 SE7       30.33S
SALEM*         SUNNY     55  44  65 E6        30.34S
METROPOLIS*    SUNNY     56  45  64 NE3       30.31R
$$

ILZ067-068-072-073-078-083-087-091-221700-
SOUTHEAST ILLINOIS

CITY           SKY/WX    TMP DP  RH WIND       PRES   REMARKS
LAWRENCEVILLE  SUNNY     53  39  59 E7        30.34S
FLORA*         SUNNY     53  40  61 E6        30.35R
FAIRFIELD*     SUNNY     54  41  60 NE7       30.33R
HARRISBURG*    SUNNY     54  42  64 E3        30.33F
ROBINSON*      SUNNY     55  41  58 E7        30.35S
CARMI*         SUNNY     56  43  61 E5        30.32F
$$

ABBREVIATIONS USED IN REMARKS
   TC - TEMPERATURE IN CELSIUS
  WCI - WIND CHILL INDEX
   HX - HEAT INDEX
  VSB - VISIBILITY
$$




USA.gov is the U.S. government's official web portal to all federal, state and local government web resources and services.